This is the latest recevied weather packets stored in our database for station/object W0WC. If no packets are shown the sender has not sent any weather packets the latest 10 day(s).
| Time | Temp. | Humidity | Pressure | Rain* | Wind** | Luminosity | Snow |
|---|---|---|---|---|---|---|---|
| 1778150877 | 7.78° C | 75% | 1018.9 hPa | 0 mm | - | 0 W/m² | - |
| 1778150574 | 8.33° C | 74% | 1018.8 hPa | 0 mm | - | 0 W/m² | - |
| 1778150270 | 8.33° C | 74% | 1018.9 hPa | 0 mm | - | 0 W/m² | - |
| 1778149966 | 8.33° C | 75% | 1018.7 hPa | 0 mm | - | 0 W/m² | - |
| 1778149663 | 8.33° C | 75% | 1018.8 hPa | 0 mm | - | 0 W/m² | - |
| 1778149359 | 7.78° C | 76% | 1018.7 hPa | 0 mm | - | 0 W/m² | - |
| 1778149056 | 7.78° C | 77% | 1018.8 hPa | 0 mm | - | 0 W/m² | - |
| 1778148751 | 7.78° C | 78% | 1018.7 hPa | 0 mm | - | 0 W/m² | - |
| 1778148448 | 7.78° C | 84% | 1018.8 hPa | 0 mm | - | 0 W/m² | - |
| 1778148147 | 7.22° C | 88% | 1018.9 hPa | 0 mm | - | 0 W/m² | - |
| 1778147844 | 7.22° C | 90% | 1018.9 hPa | 0 mm | - | 0 W/m² | - |
| 1778147540 | 7.22° C | 91% | 1018.9 hPa | 0 mm | - | 0 W/m² | - |
| 1778147237 | 7.22° C | 91% | 1019 hPa | 0 mm | - | 0 W/m² | - |
| 1778146935 | 7.22° C | 91% | 1019 hPa | 0 mm | - | 0 W/m² | - |
| 1778146631 | 7.22° C | 92% | 1018.8 hPa | 0 mm | - | 0 W/m² | - |
| 1778146330 | 7.22° C | 92% | 1018.9 hPa | 0 mm | - | 0 W/m² | - |
| 1778146027 | 7.22° C | 93% | 1018.9 hPa | 0 mm | - | 0 W/m² | - |
| 1778145723 | 6.67° C | 93% | 1018.6 hPa | 0 mm | - | 0 W/m² | - |
| 1778145419 | 6.67° C | 94% | 1018.8 hPa | 0 mm | - | 0 W/m² | - |
| 1778145116 | 6.67° C | 94% | 1018.8 hPa | 0 mm | - | 0 W/m² | - |
| 1778144811 | 6.11° C | 94% | 1019 hPa | 0 mm | - | 0 W/m² | - |
| 1778144509 | 6.11° C | 94% | 1019 hPa | 0 mm | - | 0 W/m² | - |
| 1778144206 | 6.11° C | 95% | 1019.1 hPa | 0 mm | - | 0 W/m² | - |
| 1778143902 | 5.56° C | 95% | 1019 hPa | 0 mm | - | 0 W/m² | - |
| 1778143599 | 5.56° C | 95% | 1018.9 hPa | 0 mm | - | 0 W/m² | - |
* Rain latest hour (hover to see other rain measurements)
** Current wind speed in m/s (hover to see current wind gust speed)